iso_date,epoch_date,Year,Hour,Min,DOY,POS_DOY,Lat,Lon,BP,Ts,Ta,has_bp,has_ts,has_ta,BuoyID,Buoy_Type,Buoy_Owner,Logistics,Hemisphere
2020-09-05T18:00:00Z,1599328800,2020,18,0,249.75,249.75,62.845,-52.539,-999.00,3.67,-999.0,no,yes,no,300234068344040,SVPGHI,AOML,MARIA_S._MERI,North
2020-09-05T19:01:03Z,1599332463,2020,19,1,249.7924,249.7924,62.847,-52.549,-999.00,3.71,-999.0,no,yes,no,300234068344040,SVPGHI,AOML,MARIA_S._MERI,North
2020-09-05T19:59:57Z,1599335997,2020,20,0,249.8333,249.8333,62.851,-52.554,-999.00,3.74,-999.0,no,yes,no,300234068344040,SVPGHI,AOML,MARIA_S._MERI,North
2020-09-05T21:00:00Z,1599339600,2020,21,0,249.875,249.875,62.856,-52.557,-999.00,3.68,-999.0,no,yes,no,300234068344040,SVPGHI,AOML,MARIA_S._MERI,North
2020-09-05T22:00:02Z,1599343203,2020,22,0,249.9167,249.9167,62.861,-52.56,-999.00,3.7,-999.0,no,yes,no,300234068344040,SVPGHI,AOML,MARIA_S._MERI,North
2020-09-05T22:59:57Z,1599346797,2020,23,0,249.9583,249.9583,62.862,-52.571,-999.00,3.71,-999.0,no,yes,no,300234068344040,SVPGHI,AOML,MARIA_S._MERI,North
2020-09-06T00:00:00Z,1599350400,2020,0,0,250.0,250.0,62.865,-52.587,-999.00,3.73,-999.0,no,yes,no,300234068344040,SVPGHI,AOML,MARIA_S._MERI,North
2020-09-06T01:00:02Z,1599354003,2020,1,0,250.0417,250.0417,62.868,-52.604,-999.00,3.72,-999.0,no,yes,no,300234068344040,SVPGHI,AOML,MARIA_S._MERI,North
2020-09-06T01:59:57Z,1599357597,2020,2,0,250.0833,250.0833,62.87,-52.619,-999.00,3.68,-999.0,no,yes,no,300234068344040,SVPGHI,AOML,MARIA_S._MERI,North
2020-09-06T03:01:00Z,1599361260,2020,3,1,250.1257,250.1257,62.866,-52.635,-999.00,3.66,-999.0,no,yes,no,300234068344040,SVPGHI,AOML,MARIA_S._MERI,North
2020-09-06T04:00:02Z,1599364803,2020,4,0,250.1667,250.1667,62.865,-52.659,-999.00,3.67,-999.0,no,yes,no,300234068344040,SVPGHI,AOML,MARIA_S._MERI,North
2020-09-06T04:59:57Z,1599368397,2020,5,0,250.2083,250.2083,62.865,-52.684,-999.00,3.7,-999.0,no,yes,no,300234068344040,SVPGHI,AOML,MARIA_S._MERI,North
2020-09-06T06:00:00Z,1599372000,2020,6,0,250.25,250.25,62.867,-52.705,-999.00,3.64,-999.0,no,yes,no,300234068344040,SVPGHI,AOML,MARIA_S._MERI,North
2020-09-06T07:00:02Z,1599375603,2020,7,0,250.2917,250.2917,62.868,-52.731,-999.00,3.53,-999.0,no,yes,no,300234068344040,SVPGHI,AOML,MARIA_S._MERI,North
2020-09-06T07:59:57Z,1599379197,2020,8,0,250.3333,250.3333,62.872,-52.758,-999.00,3.53,-999.0,no,yes,no,300234068344040,SVPGHI,AOML,MARIA_S._MERI,North
2020-09-06T09:00:00Z,1599382800,2020,9,0,250.375,250.375,62.878,-52.781,-999.00,3.67,-999.0,no,yes,no,300234068344040,SVPGHI,AOML,MARIA_S._MERI,North
2020-09-06T10:00:02Z,1599386403,2020,10,0,250.4167,250.4167,62.885,-52.807,-999.00,3.61,-999.0,no,yes,no,300234068344040,SVPGHI,AOML,MARIA_S._MERI,North
2020-09-06T11:02:58Z,1599390179,2020,11,3,250.4604,250.4604,62.895,-52.835,-999.00,3.61,-999.0,no,yes,no,300234068344040,SVPGHI,AOML,MARIA_S._MERI,North
2020-09-06T12:00:00Z,1599393600,2020,12,0,250.5,250.5,62.906,-52.854,-999.00,3.68,-999.0,no,yes,no,300234068344040,SVPGHI,AOML,MARIA_S._MERI,North
2020-09-06T13:00:02Z,1599397203,2020,13,0,250.5417,250.5417,62.915,-52.869,-999.00,3.73,-999.0,no,yes,no,300234068344040,SVPGHI,AOML,MARIA_S._MERI,North
2020-09-06T13:59:57Z,1599400797,2020,14,0,250.5833,250.5833,62.921,-52.881,-999.00,3.77,-999.0,no,yes,no,300234068344040,SVPGHI,AOML,MARIA_S._MERI,North
2020-09-06T15:02:00Z,1599404521,2020,15,2,250.6264,250.6264,62.924,-52.892,-999.00,3.85,-999.0,no,yes,no,300234068344040,SVPGHI,AOML,MARIA_S._MERI,North
2020-09-06T16:00:02Z,1599408003,2020,16,0,250.6667,250.6667,62.928,-52.904,-999.00,3.88,-999.0,no,yes,no,300234068344040,SVPGHI,AOML,MARIA_S._MERI,North
2020-09-06T16:59:57Z,1599411597,2020,17,0,250.7083,250.7083,62.932,-52.919,-999.00,3.85,-999.0,no,yes,no,300234068344040,SVPGHI,AOML,MARIA_S._MERI,North
2020-09-06T18:00:00Z,1599415200,2020,18,0,250.75,250.75,62.937,-52.935,-999.00,3.89,-999.0,no,yes,no,300234068344040,SVPGHI,AOML,MARIA_S._MERI,North
2020-09-06T19:00:02Z,1599418803,2020,19,0,250.7917,250.7917,62.945,-52.956,-999.00,3.88,-999.0,no,yes,no,300234068344040,SVPGHI,AOML,MARIA_S._MERI,North
2020-09-06T19:59:57Z,1599422397,2020,20,0,250.8333,250.8333,62.953,-52.971,-999.00,3.72,-999.0,no,yes,no,300234068344040,SVPGHI,AOML,MARIA_S._MERI,North
2020-09-06T21:03:01Z,1599426181,2020,21,3,250.8771,250.8771,62.96,-52.988,-999.00,3.71,-999.0,no,yes,no,300234068344040,SVPGHI,AOML,MARIA_S._MERI,North
2020-09-06T22:01:03Z,1599429663,2020,22,1,250.9174,250.9174,62.97,-53.0,-999.00,3.69,-999.0,no,yes,no,300234068344040,SVPGHI,AOML,MARIA_S._MERI,North
2020-09-06T22:59:57Z,1599433197,2020,23,0,250.9583,250.9583,62.98,-53.007,-999.00,3.68,-999.0,no,yes,no,300234068344040,SVPGHI,AOML,MARIA_S._MERI,North
2020-09-07T00:00:00Z,1599436800,2020,0,0,251.0,251.0,62.989,-53.011,-999.00,3.64,-999.0,no,yes,no,300234068344040,SVPGHI,AOML,MARIA_S._MERI,North
2020-09-07T01:00:02Z,1599440403,2020,1,0,251.0417,251.0417,62.996,-53.017,-999.00,3.63,-999.0,no,yes,no,300234068344040,SVPGHI,AOML,MARIA_S._MERI,North
2020-09-07T02:03:59Z,1599444239,2020,2,4,251.0861,251.0861,63.0,-53.015,-999.00,3.63,-999.0,no,yes,no,300234068344040,SVPGHI,AOML,MARIA_S._MERI,North
2020-09-07T03:03:01Z,1599447781,2020,3,3,251.1271,251.1271,63.001,-53.021,-999.00,3.63,-999.0,no,yes,no,300234068344040,SVPGHI,AOML,MARIA_S._MERI,North
2020-09-07T04:00:02Z,1599451203,2020,4,0,251.1667,251.1667,63.003,-53.031,-999.00,3.62,-999.0,no,yes,no,300234068344040,SVPGHI,AOML,MARIA_S._MERI,North
2020-09-07T04:59:57Z,1599454797,2020,5,0,251.2083,251.2083,63.007,-53.041,-999.00,3.62,-999.0,no,yes,no,300234068344040,SVPGHI,AOML,MARIA_S._MERI,North
2020-09-07T06:00:00Z,1599458400,2020,6,0,251.25,251.25,63.01,-53.049,-999.00,3.62,-999.0,no,yes,no,300234068344040,SVPGHI,AOML,MARIA_S._MERI,North
2020-09-07T07:01:03Z,1599462063,2020,7,1,251.2924,251.2924,63.018,-53.058,-999.00,3.61,-999.0,no,yes,no,300234068344040,SVPGHI,AOML,MARIA_S._MERI,North
2020-09-07T07:59:57Z,1599465597,2020,8,0,251.3333,251.3333,63.027,-53.06,-999.00,3.61,-999.0,no,yes,no,300234068344040,SVPGHI,AOML,MARIA_S._MERI,North
2020-09-07T09:00:00Z,1599469200,2020,9,0,251.375,251.375,63.037,-53.057,-999.00,3.6,-999.0,no,yes,no,300234068344040,SVPGHI,AOML,MARIA_S._MERI,North
2020-09-07T10:01:03Z,1599472863,2020,10,1,251.4174,251.4174,63.048,-53.049,-999.00,3.59,-999.0,no,yes,no,300234068344040,SVPGHI,AOML,MARIA_S._MERI,North
2020-09-07T11:03:59Z,1599476639,2020,11,4,251.4611,251.4611,63.056,-53.038,-999.00,3.59,-999.0,no,yes,no,300234068344040,SVPGHI,AOML,MARIA_S._MERI,North
2020-09-07T12:00:00Z,1599480000,2020,12,0,251.5,251.5,63.06,-53.036,-999.00,3.6,-999.0,no,yes,no,300234068344040,SVPGHI,AOML,MARIA_S._MERI,North
2020-09-07T13:00:02Z,1599483603,2020,13,0,251.5417,251.5417,63.062,-53.02,-999.00,3.61,-999.0,no,yes,no,300234068344040,SVPGHI,AOML,MARIA_S._MERI,North
2020-09-07T14:03:59Z,1599487439,2020,14,4,251.5861,251.5861,63.064,-53.002,-999.00,3.63,-999.0,no,yes,no,300234068344040,SVPGHI,AOML,MARIA_S._MERI,North
2020-09-07T15:00:00Z,1599490800,2020,15,0,251.625,251.625,63.061,-52.986,-999.00,3.66,-999.0,no,yes,no,300234068344040,SVPGHI,AOML,MARIA_S._MERI,North
2020-09-07T16:00:02Z,1599494403,2020,16,0,251.6667,251.6667,63.055,-52.973,-999.00,3.67,-999.0,no,yes,no,300234068344040,SVPGHI,AOML,MARIA_S._MERI,North
2020-09-07T16:59:57Z,1599497997,2020,17,0,251.7083,251.7083,63.05,-52.968,-999.00,3.71,-999.0,no,yes,no,300234068344040,SVPGHI,AOML,MARIA_S._MERI,North
2020-09-07T18:00:00Z,1599501600,2020,18,0,251.75,251.75,63.047,-52.962,-999.00,3.72,-999.0,no,yes,no,300234068344040,SVPGHI,AOML,MARIA_S._MERI,North
2020-09-07T19:01:03Z,1599505263,2020,19,1,251.7924,251.7924,63.049,-52.959,-999.00,3.73,-999.0,no,yes,no,300234068344040,SVPGHI,AOML,MARIA_S._MERI,North
2020-09-07T20:01:58Z,1599508918,2020,20,2,251.8347,251.8347,63.046,-52.946,-999.00,3.75,-999.0,no,yes,no,300234068344040,SVPGHI,AOML,MARIA_S._MERI,North
2020-09-07T21:00:00Z,1599512400,2020,21,0,251.875,251.875,63.044,-52.937,-999.00,3.75,-999.0,no,yes,no,300234068344040,SVPGHI,AOML,MARIA_S._MERI,North
2020-09-07T22:00:02Z,1599516003,2020,22,0,251.9167,251.9167,63.043,-52.929,-999.00,3.75,-999.0,no,yes,no,300234068344040,SVPGHI,AOML,MARIA_S._MERI,North
2020-09-07T22:59:57Z,1599519597,2020,23,0,251.9583,251.9583,63.044,-52.922,-999.00,3.75,-999.0,no,yes,no,300234068344040,SVPGHI,AOML,MARIA_S._MERI,North
2020-09-08T00:00:00Z,1599523200,2020,0,0,252.0,252.0,63.046,-52.909,-999.00,3.74,-999.0,no,yes,no,300234068344040,SVPGHI,AOML,MARIA_S._MERI,North
2020-09-08T01:00:02Z,1599526803,2020,1,0,252.0417,252.0417,63.044,-52.893,-999.00,3.72,-999.0,no,yes,no,300234068344040,SVPGHI,AOML,MARIA_S._MERI,North
2020-09-08T01:59:57Z,1599530397,2020,2,0,252.0833,252.0833,63.039,-52.879,-999.00,3.73,-999.0,no,yes,no,300234068344040,SVPGHI,AOML,MARIA_S._MERI,North
2020-09-08T03:00:00Z,1599534000,2020,3,0,252.125,252.125,63.03,-52.861,-999.00,3.71,-999.0,no,yes,no,300234068344040,SVPGHI,AOML,MARIA_S._MERI,North
2020-09-08T04:00:02Z,1599537603,2020,4,0,252.1667,252.1667,63.024,-52.85,-999.00,3.72,-999.0,no,yes,no,300234068344040,SVPGHI,AOML,MARIA_S._MERI,North
2020-09-08T04:59:57Z,1599541197,2020,5,0,252.2083,252.2083,63.016,-52.839,-999.00,3.72,-999.0,no,yes,no,300234068344040,SVPGHI,AOML,MARIA_S._MERI,North
2020-09-08T06:00:00Z,1599544800,2020,6,0,252.25,252.25,63.006,-52.831,-999.00,3.74,-999.0,no,yes,no,300234068344040,SVPGHI,AOML,MARIA_S._MERI,North
2020-09-08T07:00:02Z,1599548403,2020,7,0,252.2917,252.2917,62.995,-52.831,-999.00,3.73,-999.0,no,yes,no,300234068344040,SVPGHI,AOML,MARIA_S._MERI,North
2020-09-08T07:59:57Z,1599551997,2020,8,0,252.3333,252.3333,62.985,-52.841,-999.00,3.72,-999.0,no,yes,no,300234068344040,SVPGHI,AOML,MARIA_S._MERI,North
2020-09-08T09:01:00Z,1599555660,2020,9,1,252.3757,252.3757,62.98,-52.859,-999.00,3.83,-999.0,no,yes,no,300234068344040,SVPGHI,AOML,MARIA_S._MERI,North
2020-09-08T10:00:02Z,1599559203,2020,10,0,252.4167,252.4167,62.977,-52.878,-999.00,3.79,-999.0,no,yes,no,300234068344040,SVPGHI,AOML,MARIA_S._MERI,North
2020-09-08T10:59:57Z,1599562797,2020,11,0,252.4583,252.4583,62.978,-52.9,-999.00,3.74,-999.0,no,yes,no,300234068344040,SVPGHI,AOML,MARIA_S._MERI,North
2020-09-08T12:00:00Z,1599566400,2020,12,0,252.5,252.5,62.973,-52.919,-999.00,3.74,-999.0,no,yes,no,300234068344040,SVPGHI,AOML,MARIA_S._MERI,North
2020-09-08T13:00:02Z,1599570003,2020,13,0,252.5417,252.5417,62.973,-52.932,-999.00,3.75,-999.0,no,yes,no,300234068344040,SVPGHI,AOML,MARIA_S._MERI,North
2020-09-08T13:59:57Z,1599573597,2020,14,0,252.5833,252.5833,62.975,-52.943,-999.00,3.74,-999.0,no,yes,no,300234068344040,SVPGHI,AOML,MARIA_S._MERI,North
2020-09-08T15:01:00Z,1599577260,2020,15,1,252.6257,252.6257,62.974,-52.954,-999.00,3.74,-999.0,no,yes,no,300234068344040,SVPGHI,AOML,MARIA_S._MERI,North
2020-09-08T16:00:02Z,1599580803,2020,16,0,252.6667,252.6667,62.969,-52.963,-999.00,3.75,-999.0,no,yes,no,300234068344040,SVPGHI,AOML,MARIA_S._MERI,North
2020-09-08T17:00:57Z,1599584458,2020,17,1,252.709,252.709,62.962,-52.974,-999.00,3.74,-999.0,no,yes,no,300234068344040,SVPGHI,AOML,MARIA_S._MERI,North
2020-09-08T18:00:00Z,1599588000,2020,18,0,252.75,252.75,62.957,-52.986,-999.00,3.74,-999.0,no,yes,no,300234068344040,SVPGHI,AOML,MARIA_S._MERI,North
2020-09-08T19:00:02Z,1599591603,2020,19,0,252.7917,252.7917,62.949,-53.005,-999.00,3.72,-999.0,no,yes,no,300234068344040,SVPGHI,AOML,MARIA_S._MERI,North
2020-09-08T20:00:57Z,1599595258,2020,20,1,252.834,252.834,62.947,-53.029,-999.00,3.73,-999.0,no,yes,no,300234068344040,SVPGHI,AOML,MARIA_S._MERI,North
2020-09-08T21:04:01Z,1599599042,2020,21,4,252.8778,252.8778,62.939,-53.064,-999.00,3.75,-999.0,no,yes,no,300234068344040,SVPGHI,AOML,MARIA_S._MERI,North
2020-09-08T22:00:02Z,1599602403,2020,22,0,252.9167,252.9167,62.94,-53.095,-999.00,4.06,-999.0,no,yes,no,300234068344040,SVPGHI,AOML,MARIA_S._MERI,North
2020-09-08T23:00:57Z,1599606058,2020,23,1,252.959,252.959,62.941,-53.128,-999.00,3.99,-999.0,no,yes,no,300234068344040,SVPGHI,AOML,MARIA_S._MERI,North
2020-09-09T01:00:02Z,1599613203,2020,1,0,253.0417,253.0417,62.943,-53.192,-999.00,4.17,-999.0,no,yes,no,300234068344040,SVPGHI,AOML,MARIA_S._MERI,North
2020-09-09T01:59:57Z,1599616797,2020,2,0,253.0833,253.0833,62.947,-53.221,-999.00,4.16,-999.0,no,yes,no,300234068344040,SVPGHI,AOML,MARIA_S._MERI,North
2020-09-09T03:01:00Z,1599620460,2020,3,1,253.1257,253.1257,62.949,-53.242,-999.00,4.15,-999.0,no,yes,no,300234068344040,SVPGHI,AOML,MARIA_S._MERI,North
2020-09-09T04:00:02Z,1599624003,2020,4,0,253.1667,253.1667,62.951,-53.263,-999.00,4.16,-999.0,no,yes,no,300234068344040,SVPGHI,AOML,MARIA_S._MERI,North
2020-09-09T04:59:57Z,1599627597,2020,5,0,253.2083,253.2083,62.955,-53.284,-999.00,4.17,-999.0,no,yes,no,300234068344040,SVPGHI,AOML,MARIA_S._MERI,North
2020-09-09T06:00:00Z,1599631200,2020,6,0,253.25,253.25,62.96,-53.305,-999.00,4.16,-999.0,no,yes,no,300234068344040,SVPGHI,AOML,MARIA_S._MERI,North
2020-09-09T07:02:55Z,1599634976,2020,7,3,253.2937,253.2937,62.975,-53.328,-999.00,4.15,-999.0,no,yes,no,300234068344040,SVPGHI,AOML,MARIA_S._MERI,North
2020-09-09T07:59:57Z,1599638397,2020,8,0,253.3333,253.3333,62.973,-53.335,-999.00,4.16,-999.0,no,yes,no,300234068344040,SVPGHI,AOML,MARIA_S._MERI,North
2020-09-09T09:00:00Z,1599642000,2020,9,0,253.375,253.375,62.98,-53.35,-999.00,4.14,-999.0,no,yes,no,300234068344040,SVPGHI,AOML,MARIA_S._MERI,North
2020-09-09T10:00:02Z,1599645603,2020,10,0,253.4167,253.4167,62.987,-53.369,-999.00,4.14,-999.0,no,yes,no,300234068344040,SVPGHI,AOML,MARIA_S._MERI,North
2020-09-09T11:00:57Z,1599649258,2020,11,1,253.459,253.459,62.998,-53.378,-999.00,4.15,-999.0,no,yes,no,300234068344040,SVPGHI,AOML,MARIA_S._MERI,North
2020-09-09T12:00:00Z,1599652800,2020,12,0,253.5,253.5,63.006,-53.385,-999.00,4.19,-999.0,no,yes,no,300234068344040,SVPGHI,AOML,MARIA_S._MERI,North
2020-09-09T13:01:03Z,1599656463,2020,13,1,253.5424,253.5424,63.013,-53.395,-999.00,4.26,-999.0,no,yes,no,300234068344040,SVPGHI,AOML,MARIA_S._MERI,North
2020-09-09T14:01:58Z,1599660118,2020,14,2,253.5847,253.5847,63.021,-53.396,-999.00,4.23,-999.0,no,yes,no,300234068344040,SVPGHI,AOML,MARIA_S._MERI,North
2020-09-09T15:01:00Z,1599663660,2020,15,1,253.6257,253.6257,63.025,-53.397,-999.00,4.22,-999.0,no,yes,no,300234068344040,SVPGHI,AOML,MARIA_S._MERI,North
2020-09-09T16:00:02Z,1599667203,2020,16,0,253.6667,253.6667,63.026,-53.4,-999.00,4.27,-999.0,no,yes,no,300234068344040,SVPGHI,AOML,MARIA_S._MERI,North
2020-09-09T16:59:57Z,1599670797,2020,17,0,253.7083,253.7083,63.026,-53.41,-999.00,4.3,-999.0,no,yes,no,300234068344040,SVPGHI,AOML,MARIA_S._MERI,North
2020-09-09T18:00:00Z,1599674400,2020,18,0,253.75,253.75,63.027,-53.418,-999.00,4.31,-999.0,no,yes,no,300234068344040,SVPGHI,AOML,MARIA_S._MERI,North
2020-09-09T19:02:55Z,1599678176,2020,19,3,253.7937,253.7937,63.031,-53.429,-999.00,4.33,-999.0,no,yes,no,300234068344040,SVPGHI,AOML,MARIA_S._MERI,North
2020-09-09T19:59:57Z,1599681597,2020,20,0,253.8333,253.8333,63.036,-53.441,-999.00,4.34,-999.0,no,yes,no,300234068344040,SVPGHI,AOML,MARIA_S._MERI,North
2020-09-09T21:00:00Z,1599685200,2020,21,0,253.875,253.875,63.042,-53.455,-999.00,4.34,-999.0,no,yes,no,300234068344040,SVPGHI,AOML,MARIA_S._MERI,North
2020-09-09T22:01:03Z,1599688863,2020,22,1,253.9174,253.9174,63.052,-53.464,-999.00,4.34,-999.0,no,yes,no,300234068344040,SVPGHI,AOML,MARIA_S._MERI,North
2020-09-09T23:00:57Z,1599692458,2020,23,1,253.959,253.959,63.069,-53.466,-999.00,4.34,-999.0,no,yes,no,300234068344040,SVPGHI,AOML,MARIA_S._MERI,North
2020-09-10T00:00:00Z,1599696000,2020,0,0,254.0,254.0,63.076,-53.468,-999.00,4.33,-999.0,no,yes,no,300234068344040,SVPGHI,AOML,MARIA_S._MERI,North
2020-09-10T01:01:03Z,1599699663,2020,1,1,254.0424,254.0424,63.084,-53.458,-999.00,4.33,-999.0,no,yes,no,300234068344040,SVPGHI,AOML,MARIA_S._MERI,North
2020-09-10T01:59:57Z,1599703197,2020,2,0,254.0833,254.0833,63.095,-53.438,-999.00,4.33,-999.0,no,yes,no,300234068344040,SVPGHI,AOML,MARIA_S._MERI,North
2020-09-10T03:00:00Z,1599706800,2020,3,0,254.125,254.125,63.107,-53.411,-999.00,4.33,-999.0,no,yes,no,300234068344040,SVPGHI,AOML,MARIA_S._MERI,North
2020-09-10T04:00:02Z,1599710403,2020,4,0,254.1667,254.1667,63.115,-53.376,-999.00,4.34,-999.0,no,yes,no,300234068344040,SVPGHI,AOML,MARIA_S._MERI,North
2020-09-10T04:59:57Z,1599713997,2020,5,0,254.2083,254.2083,63.12,-53.34,-999.00,4.34,-999.0,no,yes,no,300234068344040,SVPGHI,AOML,MARIA_S._MERI,North
2020-09-10T06:00:00Z,1599717600,2020,6,0,254.25,254.25,63.119,-53.303,-999.00,4.34,-999.0,no,yes,no,300234068344040,SVPGHI,AOML,MARIA_S._MERI,North
2020-09-10T07:00:02Z,1599721203,2020,7,0,254.2917,254.2917,63.117,-53.275,-999.00,4.32,-999.0,no,yes,no,300234068344040,SVPGHI,AOML,MARIA_S._MERI,North
2020-09-10T07:59:57Z,1599724797,2020,8,0,254.3333,254.3333,63.112,-53.259,-999.00,4.31,-999.0,no,yes,no,300234068344040,SVPGHI,AOML,MARIA_S._MERI,North
2020-09-10T09:00:00Z,1599728400,2020,9,0,254.375,254.375,63.109,-53.251,-999.00,4.3,-999.0,no,yes,no,300234068344040,SVPGHI,AOML,MARIA_S._MERI,North
2020-09-10T10:00:02Z,1599732003,2020,10,0,254.4167,254.4167,63.11,-53.245,-999.00,4.29,-999.0,no,yes,no,300234068344040,SVPGHI,AOML,MARIA_S._MERI,North
2020-09-10T11:03:59Z,1599735839,2020,11,4,254.4611,254.4611,-90.0,-180.0,-999.00,4.16,-999.0,no,yes,no,300234068344040,SVPGHI,AOML,MARIA_S._MERI,North
2020-09-10T12:00:00Z,1599739200,2020,12,0,254.5,254.5,63.124,-53.221,-999.00,4.19,-999.0,no,yes,no,300234068344040,SVPGHI,AOML,MARIA_S._MERI,North
2020-09-10T13:00:02Z,1599742803,2020,13,0,254.5417,254.5417,63.136,-53.203,-999.00,4.21,-999.0,no,yes,no,300234068344040,SVPGHI,AOML,MARIA_S._MERI,North
2020-09-10T14:02:58Z,1599746579,2020,14,3,254.5854,254.5854,63.149,-53.175,-999.00,4.24,-999.0,no,yes,no,300234068344040,SVPGHI,AOML,MARIA_S._MERI,North
2020-09-10T15:00:00Z,1599750000,2020,15,0,254.625,254.625,63.158,-53.142,-999.00,4.25,-999.0,no,yes,no,300234068344040,SVPGHI,AOML,MARIA_S._MERI,North
2020-09-10T16:00:02Z,1599753603,2020,16,0,254.6667,254.6667,63.165,-53.111,-999.00,4.27,-999.0,no,yes,no,300234068344040,SVPGHI,AOML,MARIA_S._MERI,North
2020-09-10T16:59:57Z,1599757197,2020,17,0,254.7083,254.7083,63.168,-53.082,-999.00,4.27,-999.0,no,yes,no,300234068344040,SVPGHI,AOML,MARIA_S._MERI,North
2020-09-10T18:01:00Z,1599760860,2020,18,1,254.7507,254.7507,63.167,-53.056,-999.00,4.28,-999.0,no,yes,no,300234068344040,SVPGHI,AOML,MARIA_S._MERI,North
2020-09-10T19:00:02Z,1599764403,2020,19,0,254.7917,254.7917,63.169,-53.028,-999.00,4.28,-999.0,no,yes,no,300234068344040,SVPGHI,AOML,MARIA_S._MERI,North
2020-09-10T19:59:57Z,1599767997,2020,20,0,254.8333,254.8333,63.172,-53.0,-999.00,4.27,-999.0,no,yes,no,300234068344040,SVPGHI,AOML,MARIA_S._MERI,North
2020-09-10T21:00:00Z,1599771600,2020,21,0,254.875,254.875,63.173,-52.98,-999.00,4.25,-999.0,no,yes,no,300234068344040,SVPGHI,AOML,MARIA_S._MERI,North
2020-09-10T22:00:02Z,1599775203,2020,22,0,254.9167,254.9167,63.177,-52.97,-999.00,4.25,-999.0,no,yes,no,300234068344040,SVPGHI,AOML,MARIA_S._MERI,North
2020-09-10T23:00:57Z,1599778858,2020,23,1,254.959,254.959,63.189,-52.95,-999.00,4.24,-999.0,no,yes,no,300234068344040,SVPGHI,AOML,MARIA_S._MERI,North
2020-09-11T00:00:00Z,1599782400,2020,0,0,255.0,255.0,63.195,-52.93,-999.00,4.24,-999.0,no,yes,no,300234068344040,SVPGHI,AOML,MARIA_S._MERI,North
2020-09-11T01:00:02Z,1599786003,2020,1,0,255.0417,255.0417,63.202,-52.895,-999.00,4.22,-999.0,no,yes,no,300234068344040,SVPGHI,AOML,MARIA_S._MERI,North
2020-09-11T02:00:57Z,1599789658,2020,2,1,255.084,255.084,63.217,-52.872,-999.00,4.47,-999.0,no,yes,no,300234068344040,SVPGHI,AOML,MARIA_S._MERI,North
2020-09-11T03:00:00Z,1599793200,2020,3,0,255.125,255.125,63.226,-52.841,-999.00,4.47,-999.0,no,yes,no,300234068344040,SVPGHI,AOML,MARIA_S._MERI,North
2020-09-11T04:00:02Z,1599796803,2020,4,0,255.1667,255.1667,63.23,-52.811,-999.00,4.5,-999.0,no,yes,no,300234068344040,SVPGHI,AOML,MARIA_S._MERI,North
2020-09-11T04:59:57Z,1599800397,2020,5,0,255.2083,255.2083,63.235,-52.786,-999.00,4.73,-999.0,no,yes,no,300234068344040,SVPGHI,AOML,MARIA_S._MERI,North
2020-09-11T06:00:00Z,1599804000,2020,6,0,255.25,255.25,63.24,-52.767,-999.00,4.91,-999.0,no,yes,no,300234068344040,SVPGHI,AOML,MARIA_S._MERI,North
2020-09-11T07:00:02Z,1599807603,2020,7,0,255.2917,255.2917,63.248,-52.755,-999.00,4.76,-999.0,no,yes,no,300234068344040,SVPGHI,AOML,MARIA_S._MERI,North
2020-09-11T07:59:57Z,1599811197,2020,8,0,255.3333,255.3333,63.257,-52.749,-999.00,4.69,-999.0,no,yes,no,300234068344040,SVPGHI,AOML,MARIA_S._MERI,North
2020-09-11T09:00:00Z,1599814800,2020,9,0,255.375,255.375,63.267,-52.741,-999.00,4.64,-999.0,no,yes,no,300234068344040,SVPGHI,AOML,MARIA_S._MERI,North
2020-09-11T10:00:02Z,1599818403,2020,10,0,255.4167,255.4167,63.276,-52.734,-999.00,4.57,-999.0,no,yes,no,300234068344040,SVPGHI,AOML,MARIA_S._MERI,North
2020-09-11T11:01:58Z,1599822118,2020,11,2,255.4597,255.4597,63.288,-52.728,-999.00,4.57,-999.0,no,yes,no,300234068344040,SVPGHI,AOML,MARIA_S._MERI,North
2020-09-11T12:01:00Z,1599825660,2020,12,1,255.5007,255.5007,63.297,-52.723,-999.00,4.62,-999.0,no,yes,no,300234068344040,SVPGHI,AOML,MARIA_S._MERI,North
2020-09-11T13:00:02Z,1599829203,2020,13,0,255.5417,255.5417,63.305,-52.717,-999.00,4.83,-999.0,no,yes,no,300234068344040,SVPGHI,AOML,MARIA_S._MERI,North
2020-09-11T13:59:57Z,1599832797,2020,14,0,255.5833,255.5833,63.313,-52.715,-999.00,5.0,-999.0,no,yes,no,300234068344040,SVPGHI,AOML,MARIA_S._MERI,North
2020-09-11T15:00:00Z,1599836400,2020,15,0,255.625,255.625,63.32,-52.712,-999.00,5.11,-999.0,no,yes,no,300234068344040,SVPGHI,AOML,MARIA_S._MERI,North
2020-09-11T16:00:02Z,1599840003,2020,16,0,255.6667,255.6667,63.328,-52.705,-999.00,5.16,-999.0,no,yes,no,300234068344040,SVPGHI,AOML,MARIA_S._MERI,North
2020-09-11T16:59:57Z,1599843597,2020,17,0,255.7083,255.7083,63.337,-52.698,-999.00,5.09,-999.0,no,yes,no,300234068344040,SVPGHI,AOML,MARIA_S._MERI,North
2020-09-11T18:02:00Z,1599847321,2020,18,2,255.7514,255.7514,63.344,-52.687,-999.00,5.25,-999.0,no,yes,no,300234068344040,SVPGHI,AOML,MARIA_S._MERI,North
2020-09-11T19:00:02Z,1599850803,2020,19,0,255.7917,255.7917,63.345,-52.683,-999.00,5.36,-999.0,no,yes,no,300234068344040,SVPGHI,AOML,MARIA_S._MERI,North
2020-09-11T21:01:00Z,1599858060,2020,21,1,255.8757,255.8757,63.347,-52.682,-999.00,5.18,-999.0,no,yes,no,300234068344040,SVPGHI,AOML,MARIA_S._MERI,North
2020-09-11T22:00:02Z,1599861603,2020,22,0,255.9167,255.9167,63.348,-52.687,-999.00,5.12,-999.0,no,yes,no,300234068344040,SVPGHI,AOML,MARIA_S._MERI,North
2020-09-11T23:02:58Z,1599865379,2020,23,3,255.9604,255.9604,63.35,-52.689,-999.00,5.04,-999.0,no,yes,no,300234068344040,SVPGHI,AOML,MARIA_S._MERI,North
2020-09-12T00:00:00Z,1599868800,2020,0,0,256.0,256.0,63.355,-52.69,-999.00,4.83,-999.0,no,yes,no,300234068344040,SVPGHI,AOML,MARIA_S._MERI,North
2020-09-12T01:01:03Z,1599872463,2020,1,1,256.0424,256.0424,63.36,-52.689,-999.00,4.65,-999.0,no,yes,no,300234068344040,SVPGHI,AOML,MARIA_S._MERI,North
2020-09-12T03:00:00Z,1599879600,2020,3,0,256.125,256.125,63.362,-52.707,-999.00,4.69,-999.0,no,yes,no,300234068344040,SVPGHI,AOML,MARIA_S._MERI,North
2020-09-12T04:00:02Z,1599883203,2020,4,0,256.1667,256.1667,63.363,-52.718,-999.00,4.76,-999.0,no,yes,no,300234068344040,SVPGHI,AOML,MARIA_S._MERI,North
2020-09-12T04:59:57Z,1599886797,2020,5,0,256.2083,256.2083,63.365,-52.732,-999.00,4.77,-999.0,no,yes,no,300234068344040,SVPGHI,AOML,MARIA_S._MERI,North
2020-09-12T06:03:01Z,1599890581,2020,6,3,256.2521,256.2521,63.369,-52.746,-999.00,4.72,-999.0,no,yes,no,300234068344040,SVPGHI,AOML,MARIA_S._MERI,North
2020-09-12T07:00:02Z,1599894003,2020,7,0,256.2917,256.2917,63.375,-52.762,-999.00,4.69,-999.0,no,yes,no,300234068344040,SVPGHI,AOML,MARIA_S._MERI,North
2020-09-12T08:01:58Z,1599897718,2020,8,2,256.3347,256.3347,63.383,-52.777,-999.00,4.66,-999.0,no,yes,no,300234068344040,SVPGHI,AOML,MARIA_S._MERI,North
2020-09-12T09:00:00Z,1599901200,2020,9,0,256.375,256.375,63.393,-52.782,-999.00,4.62,-999.0,no,yes,no,300234068344040,SVPGHI,AOML,MARIA_S._MERI,North